Profiel Pagina van preekvandeweek
preekvandeweek
8325
OFFLINE
7 jaar geleden
7 jaar geleden
7 jaar geleden
0

Info

preekvandeweek
-
-
Via de mailinglist op onze site, kunt u wekelijks ook onze geselecteerde preek van de week ontvangen.
U kunt ook terecht op de archieven op onze website: www.preekvandeweek.be

Preken

DatumTitelTreffersBeoordeling
16-07-2009 23:00:00Geen kerk zonder priesters (2009)1309 / 0
11-07-2009 23:00:00De kracht van de kwetsbaarheid (2009)1249 / 0
04-07-2009 23:00:00Verwondering (2009)1276 / 0
27-06-2009 23:00:00Sta op! (2009)1357 / 0
27-06-2009 23:00:00 Aan het leven teruggegeven (2009)1184 / 0
27-06-2009 23:00:00Tot leven wekken (2009)1329 / 0
20-06-2009 23:00:00Het stillen van de storm (2009)1587 / 0
13-06-2009 23:00:00Gods koninkrijk (2009)1468 / 0
13-06-2009 23:00:00De kracht van het geduld (2009)1644 / 0
21-04-2009 21:27:00Terwijl we van hem spreken... (2009)1393 / 0
21-04-2009 21:27:00Van vertwijfeling naar hoop (2009)1326 / 0
17-02-2009 19:18:00Dragen of gedragen worden (2009)1487 / 0
18-01-2009 13:51:51De brieven van Paulus1388 / 0
13-01-2009 16:00:00Jezus als Lam Gods (2009)1529 / 0
09-01-2009 17:11:10De keten van bevrijding (2009)1211 / 0
22-11-2008 15:46:00Een partijdige rechter (2008)1370 / 0
12-11-2008 00:01:00Kostbare talenten (2008)1577 / 0
04-11-2008 20:58:00Tempelreiniging (2008)775 / 0
14-10-2008 14:44:33God en de belastingen (2008)1637 / 0
14-10-2008 14:43:26Dragers van Gods beeld (2008)1582 / 0
11-10-2008 19:00:00De feestelijkheid van het leven (2008)1341 / 0
04-10-2008 19:00:00Gods rentmeesters (2008)1415 / 0
04-10-2008 19:00:00De wingerd van de schepping (2008)1301 / 0
04-10-2008 19:00:00Een oproep tot bekering (2008)1421 / 0
27-09-2008 19:00:00Telkens nieuwe kansen (2008)1400 / 0
21-09-2008 14:33:46Twee keren bekering (2008)1582 / 0
14-09-2008 19:00:00Gods ongekende goedheid (2008)1362 / 0
05-09-2008 19:00:00Opkijken naar het kruis (2008)1152 / 0
31-08-2008 19:00:00Elkaars profeten (2008)1468 / 0
30-08-2008 19:00:00Ondanks alles (2008)1511 / 0
23-08-2008 19:00:00Een rots om op te bouwen (2008)1499 / 0
16-08-2008 19:00:00Kerk voor het geluk van de mensen (2008)1365 / 0
11-08-2008 13:26:59Jezus schaakmat gezet (2008)1616 / 0
09-08-2008 19:00:00Over het water lopen (2008)1712 / 0
02-08-2008 19:00:00Breken en delen (2008)1592 / 0
26-07-2008 19:00:00De beste keuze (2008)1704 / 0
19-07-2008 19:00:00Onkruid en tarwe (2008)1607 / 0
19-07-2008 19:00:00Wie, wat is goed? Wat, wie is kwaad? (2008)1577 / 0
19-07-2008 19:00:00Tussen twijfel en overgave (2008)1526 / 0
12-07-2008 19:00:00Een les van hoop en optimisme (2008)1617 / 0
05-07-2008 19:00:00Het juk van de prestatiemaatschappij (2008)1791 / 1
28-06-2008 19:00:00De dienst van het ambt en van het apostolaat (2008)688 / 0
16-06-2008 13:14:12Niet vreesachtig geloven (2008)1594 / 0
14-06-2008 19:00:00Gezonden om te geven (2008)1475 / 0
14-06-2008 19:00:00Op pad gestuurd (2008)1480 / 0
14-06-2008 19:00:00Niet naar de heidenen? (2008)1431 / 0
07-06-2008 19:00:00Wiens brood men eet... (2008)1433 / 0
03-06-2008 13:18:29Wiens brood men eet...1765 / 0
27-05-2008 07:33:00 Op rotsgrond bouwen (2008)1636 / 0
22-05-2008 08:01:46 Eerst Gods koninkrijk2241 / 0
13-05-2008 22:59:00God boven, naast en in ons (2008)1500 / 0
10-05-2008 19:00:00De vijftigste dag (2008)1331 / 0
01-05-2008 02:12:57God verheerlijken (2008)1704 / 0
27-04-2008 19:00:00Geloven in de Kracht die blijft (2008)1351 / 0
27-04-2008 19:00:00Onze definitieve thuis (2008)1446 / 0
26-04-2008 19:00:00Niet als wezen achtergelaten (2008)1590 / 0
26-04-2008 19:00:00Niet ongerust zijn (2008)1405 / 0
08-04-2008 18:44:00De deur voor de schapen (2008)1737 / 0
05-04-2008 19:00:00Mensen onderweg (2008)1737 / 0
29-03-2008 19:00:00Niet zien en toch geloven (2008)1728 / 0
29-03-2008 19:00:00Weten en geloven (2008)1670 / 0
29-03-2008 19:00:00Ongelovige Thomas? (2008)1920 / 0
22-03-2008 17:18:30Opstaan tot nieuw leven (2008)1759 / 0
21-03-2008 19:00:00Verrijzenis, feit of fictie? (2008)1707 / 0
18-03-2008 14:51:12Zijn testament (2008)1555 / 0
18-03-2008 14:50:00Gods roepstem (2008)1398 / 0
18-03-2008 14:44:51 Voorbij de horizon (2008)1480 / 0
18-03-2008 14:43:38Niet in het graf (2008)1648 / 0
04-03-2008 20:54:00De grafsteen wegnemen (2008)1632 / 0
26-02-2008 16:49:00Ziende blinden, blinde zienden (2008)1720 / 1
20-02-2008 10:42:01Bron van levend water (2008)2184 / 0
20-02-2008 10:26:34Een vrouwelijke apostel (2008)1928 / 0
16-02-2008 18:00:00Zijn ware gedaante (2008)1571 / 1
05-02-2008 21:32:00Het duivelse in ons (2008)1659 / 0
02-02-2008 18:00:00Een nieuw licht (2008)1843 / 0
28-01-2008 18:00:00Gelukwensen (2008)2337 / 0
24-01-2008 18:00:00Christenen in de minderheid (2008)1677 / 0
19-01-2008 18:00:00Zie het Lam Gods (2008)2080 / 1
12-01-2008 11:24:16Oprijzen uit het water (2008)1769 / 0
09-01-2008 18:00:00Het kwaad ontkrachten (2008)1810 / 0
02-01-2008 18:00:00De vierde koning (2008)1797 / 0
30-12-2007 18:00:00Het gezin ge1815 / 0
24-12-2007 18:00:00Woord ons gegeven (2007)1498 / 0
11-12-2007 22:44:00Anders dan verwacht (2007)2110 / 0
03-12-2007 17:06:43Jesaja's droom (2007)2152 / 0
01-12-2007 18:00:00Wakker schudden (2007)2220 / 0
23-11-2007 14:36:17Een gekruisigde koning ( 2007)1584 / 0
21-11-2007 10:23:00Beeld van Gods barmhartigheid (2007)1623 / 0
15-11-2007 15:00:21Het einde der tijden of een nieuw begin (2007)?1816 / 1
14-11-2007 18:00:00Standvastigheid (2007)1710 / 0
06-11-2007 21:05:00Een God van levenden - 20071755 / 0
30-10-2007 23:49:00Voor kleine mensen bereikbaar (2007)1763 / 1
21-10-2007 08:22:16De bekoring van farize1721 / 0
16-10-2007 23:47:00Geloven is een werkwoord (2007)1671 / 0
02-10-2007 01:00:0027e zondag door het jaar C - 20071577 / 1
02-10-2007 01:00:0027e zondag door het jaar C - 20071682 / 1
25-09-2007 00:00:00Omkering van rijkdom en armoede (2007)1591 / 0
20-09-2007 01:00:00Met geld vrienden maken (2007)1716 / 2
12-09-2007 07:28:35Een pregnant verhaal (2007)1773 / 0
04-09-2007 01:00:00De eisen van het evangelie (2007)1656 / 0
29-08-2007 19:14:10De eersten laatst, de laatsten eerst (2007)1710 / 0
05-08-2007 01:00:00Moederschap1444 / 0
05-08-2007 01:00:00Een moeder om van te houden1655 / 0
05-08-2007 01:00:00Nederige mensen verheven1356 / 0
05-08-2007 01:00:00Maria ten hemelopneming1365 / 0
05-08-2007 01:00:00Model van geloven1419 / 0
21-07-2007 12:27:10Waar je schat is (2007)1781 / 0
21-07-2007 12:25:3918e zondag door het jaar C - 20071534 / 0
21-07-2007 12:24:1017e zondag door het jaar C - 20071439 / 0
20-07-2007 01:00:00Vrouwen evenzeer als mannen (2007)1529 / 0
20-07-2007 01:00:00Martha en Maria (2007)1733 / 0
15-07-2007 01:00:00Welbehagen en onbehagen (2007)1483 / 0
10-07-2007 21:25:2215e zondag door het jaar C - 20071445 / 0
04-07-2007 19:40:4114e zondag door het jaar C - 20071623 / 0
16-04-2005 20:00:00De roeping van een nieuwe herder (2005)1488 / 0
16-04-2005 20:00:00Herderschap (2005)1649 / 0
09-04-2005 20:00:00Gaande de weg (2005)1584 / 0
09-04-2005 20:00:00Op eigen risico (2005)1533 / 0
02-04-2005 20:00:00Twijfelen is toegestaan (2005)1592 / 0
26-03-2005 20:00:00Paasgeloof (2005)1601 / 1
26-03-2005 20:00:00De weg naar leven (2005)1507 / 0
19-03-2005 18:00:00Blijde inkomst (2005)1685 / 0
12-03-2005 18:00:00Paasmensen (2005)1622 / 0
12-03-2005 18:00:00Het volle leven (2005)1862 / 0
05-03-2005 18:00:00Het licht leren zien (2005)1507 / 0
26-02-2005 18:00:00Grenzen overschrijden (2005)1509 / 0
19-02-2005 18:00:00Gehoor geven aan de Stem (2005)1455 / 0
19-02-2005 18:00:00Bergervaringen (2005)1709 / 1
12-02-2005 18:00:00In de woestijn bekoord (2005)1740 / 0
24-10-2004 01:00:00Onecht en echt gebed (2004)1688 / 2
17-10-2004 01:00:00Met geheven handen (2004)1611 / 0
15-10-2004 19:00:00Het beeld van God (2004)1281 / 0
15-10-2004 19:00:00Het beeld van de keizer en het beeld van God (2004)1221 / 0
10-10-2004 01:00:00Een van de tien (2004)1744 / 1
03-10-2004 01:00:00Bidden om meer geloof (2004)1624 / 1
03-10-2004 01:00:00Geloof en dienstbaarheid1766 / 0
26-09-2004 01:00:00Wacht niet tot het te laat is (2004)1502 / 0
26-09-2004 01:00:00Op medemensen betrokken (2004)1616 / 2
19-09-2004 01:00:00Geld goed gebruiken (2004)1535 / 0
19-09-2004 01:00:00Met geld vrienden maken (2004)1514 / 1
18-07-2004 01:00:00Marta en Maria (2004)1643 / 0
11-07-2004 01:00:0015e zondag door het jaar C - 20041343 / 0
04-07-2004 01:00:0014e zondag door het jaar C - 20041377 / 0
09-02-2002 19:00:00Zonder pretentie (2002)1785 / 0
30-11-2001 18:00:001e zondag in de advent A (2001)1905 / 0
23-11-2001 18:00:00Vol hoop verwachten2055 / 0
23-11-2001 18:00:00Wakker geschud1978 / 0
31-10-2001 18:00:0032e zondag door het jaar C (2001)1496 / 0
19-10-2001 19:00:00Geloof en politiek (2001)1368 / 0
23-09-2001 01:00:00De wezenlijke armoede (2001)1504 / 0
23-09-2001 01:00:00Rentmeesters zijn we allemaal (2001)1477 / 0
15-07-2001 01:00:0015e zondag door het jaar C - 20011284 / 0
08-07-2001 01:00:0014e zondag door het jaar C - 20011349 / 0
01-07-2001 01:00:0013e zondag door het jaar C - 20011496 / 0
30-11-1999 00:00:00De liefde van een zondige vrouw (2001)1578 / 0
30-11-1999 00:00:00Niet achteromkijken (2004)1448 / 0
14-08-1999 19:00:00Ons volkslied850 / 0
De steile weg1946 / 0
Heilig durven zijn900 / 0
De daad bij het woord1730 / 0

25e zondag door het jaar (A)

  • Eerste lezing: Jes. 55,6-9
  • Tweede lezing: Fil. 1, 20-27
  • Evangelie: Mt. 20,1-16
  • Preken: 28
  • Vieringen: 1
  • Downloads:

26e zondag door het jaar (A)

  • Eerste lezing: Ez. 18,25-28
  • Tweede lezing: Fil. 2,1-11
  • Evangelie: Mt. 21,28-32
  • Preken: 29
  • Vieringen: 1
  • Downloads: